Time,TemperatureF,DewpointF,PressureIn,WindDirection,WindDirectionDegrees,WindSpeedMPH,WindSpeedGustMPH,Humidity,HourlyPrecipIn,Conditions,Clouds,dailyrainin,SoftwareType,DateUTC
2017-06-28 00:05:00,55.4,51.3,29.99,North,11,0.0,0.0,86,0.00,,,0.00,meteobridge,2017-06-28 04:05:00,
2017-06-28 00:10:00,55.2,51.1,29.99,North,11,0.0,0.0,86,0.00,,,0.00,meteobridge,2017-06-28 04:10:00,
2017-06-28 00:15:00,55.0,50.9,29.99,North,11,0.0,0.0,86,0.00,,,0.00,meteobridge,2017-06-28 04:15:00,
2017-06-28 00:20:00,55.0,50.9,30.00,North,11,0.0,0.0,86,0.00,,,0.00,meteobridge,2017-06-28 04:20:00,
2017-06-28 00:25:00,54.7,50.5,30.00,North,11,0.0,0.0,86,0.00,,,0.00,meteobridge,2017-06-28 04:25:00,
2017-06-28 00:30:00,54.7,50.9,30.00,North,11,0.0,0.0,87,0.00,,,0.00,meteobridge,2017-06-28 04:30:00,
2017-06-28 00:36:00,54.3,50.5,30.00,North,11,0.0,0.0,87,0.00,,,0.00,meteobridge,2017-06-28 04:36:00,
2017-06-28 00:41:00,54.1,50.4,29.99,North,11,0.0,0.0,87,0.00,,,0.00,meteobridge,2017-06-28 04:41:00,
2017-06-28 00:46:00,54.1,50.7,30.00,North,11,0.0,0.0,88,0.00,,,0.00,meteobridge,2017-06-28 04:46:00,
2017-06-28 00:51:00,54.0,50.5,30.00,North,11,0.0,0.0,88,0.00,,,0.00,meteobridge,2017-06-28 04:51:00,
2017-06-28 00:57:00,53.6,50.2,30.00,North,11,0.0,0.0,88,0.00,,,0.00,meteobridge,2017-06-28 04:57:00,
2017-06-28 01:02:00,53.4,50.2,30.00,North,11,0.0,0.0,89,0.00,,,0.00,meteobridge,2017-06-28 05:02:00,
2017-06-28 01:07:00,53.2,50.0,30.00,North,11,0.0,0.0,89,0.00,,,0.00,meteobridge,2017-06-28 05:07:00,
2017-06-28 01:12:00,53.2,50.0,29.99,North,11,0.0,0.0,89,0.00,,,0.00,meteobridge,2017-06-28 05:12:00,
2017-06-28 01:17:00,53.1,49.8,30.00,North,11,0.0,0.0,89,0.00,,,0.00,meteobridge,2017-06-28 05:17:00,
2017-06-28 01:22:00,53.1,49.8,30.00,North,11,0.0,0.0,89,0.00,,,0.00,meteobridge,2017-06-28 05:22:00,
2017-06-28 01:28:00,52.9,49.6,30.00,North,11,0.0,0.0,89,0.00,,,0.00,meteobridge,2017-06-28 05:28:00,
2017-06-28 01:33:00,52.9,49.6,30.00,North,11,0.0,0.0,89,0.00,,,0.00,meteobridge,2017-06-28 05:33:00,
2017-06-28 01:38:00,52.9,49.6,29.99,North,11,0.0,0.0,89,0.00,,,0.00,meteobridge,2017-06-28 05:38:00,
2017-06-28 01:43:00,52.5,49.6,29.99,North,11,0.0,0.0,90,0.00,,,0.00,meteobridge,2017-06-28 05:43:00,
2017-06-28 01:49:00,52.5,49.6,29.99,North,11,0.0,0.0,90,0.00,,,0.00,meteobridge,2017-06-28 05:49:00,
2017-06-28 01:54:00,52.5,49.6,29.99,North,11,0.0,0.0,90,0.00,,,0.00,meteobridge,2017-06-28 05:54:00,
2017-06-28 01:59:00,52.5,49.6,29.99,North,11,0.0,0.0,90,0.00,,,0.00,meteobridge,2017-06-28 05:59:00,
2017-06-28 02:04:00,52.3,49.5,29.99,North,11,0.0,0.0,90,0.00,,,0.00,meteobridge,2017-06-28 06:04:00,
2017-06-28 02:09:00,52.2,49.3,29.99,North,11,0.0,0.0,90,0.00,,,0.00,meteobridge,2017-06-28 06:09:00,
2017-06-28 02:15:00,52.0,49.5,30.00,North,11,0.0,0.0,91,0.00,,,0.00,meteobridge,2017-06-28 06:15:00,
2017-06-28 02:20:00,51.6,49.1,30.00,North,11,0.0,0.0,91,0.00,,,0.00,meteobridge,2017-06-28 06:20:00,
2017-06-28 02:26:00,51.6,49.1,30.00,North,11,0.0,0.0,91,0.00,,,0.00,meteobridge,2017-06-28 06:26:00,
2017-06-28 02:31:00,51.6,49.1,30.00,North,11,0.0,0.0,91,0.00,,,0.00,meteobridge,2017-06-28 06:31:00,
2017-06-28 02:37:00,51.6,49.1,30.00,North,11,0.0,0.0,91,0.00,,,0.00,meteobridge,2017-06-28 06:37:00,
2017-06-28 02:42:00,51.6,49.5,30.00,North,11,0.0,0.0,92,0.00,,,0.00,meteobridge,2017-06-28 06:42:00,
2017-06-28 02:47:00,51.6,49.5,30.00,North,11,0.0,0.0,92,0.00,,,0.00,meteobridge,2017-06-28 06:47:00,
2017-06-28 02:52:00,51.6,49.5,30.00,North,11,0.0,0.0,92,0.00,,,0.00,meteobridge,2017-06-28 06:52:00,
2017-06-28 02:57:00,51.6,49.5,30.00,North,11,0.0,0.0,92,0.00,,,0.00,meteobridge,2017-06-28 06:57:00,
2017-06-28 03:02:00,51.6,49.5,30.00,North,11,0.0,0.0,92,0.00,,,0.00,meteobridge,2017-06-28 07:02:00,
2017-06-28 03:08:00,51.6,49.5,30.01,North,11,0.0,0.0,92,0.00,,,0.00,meteobridge,2017-06-28 07:08:00,
2017-06-28 03:13:00,51.4,49.3,30.01,North,11,0.0,0.0,92,0.00,,,0.00,meteobridge,2017-06-28 07:13:00,
2017-06-28 03:18:00,51.1,48.9,30.01,North,11,0.0,0.0,92,0.00,,,0.00,meteobridge,2017-06-28 07:18:00,
2017-06-28 03:24:00,50.7,48.6,30.01,NNE,13,0.0,0.0,92,0.00,,,0.00,meteobridge,2017-06-28 07:24:00,
2017-06-28 03:29:00,50.7,48.6,30.01,NNE,13,0.0,0.0,92,0.00,,,0.00,meteobridge,2017-06-28 07:29:00,
2017-06-28 03:34:00,50.4,48.2,30.01,NNE,13,0.0,0.0,92,0.00,,,0.00,meteobridge,2017-06-28 07:34:00,
2017-06-28 03:39:00,50.2,48.0,30.01,NNE,13,0.0,0.0,92,0.00,,,0.00,meteobridge,2017-06-28 07:39:00,
2017-06-28 03:44:00,49.8,47.7,30.01,NNE,13,0.0,0.0,92,0.00,,,0.00,meteobridge,2017-06-28 07:44:00,
2017-06-28 03:49:00,49.6,47.5,30.01,NNE,13,0.0,0.0,92,0.00,,,0.00,meteobridge,2017-06-28 07:49:00,
2017-06-28 03:54:00,49.5,47.3,30.01,NNE,13,0.0,0.0,92,0.00,,,0.00,meteobridge,2017-06-28 07:54:00,
2017-06-28 03:59:00,49.6,47.5,30.01,NNE,13,0.0,0.0,92,0.00,,,0.00,meteobridge,2017-06-28 07:59:00,
2017-06-28 04:05:00,49.6,47.7,30.01,NNE,13,0.0,0.0,93,0.00,,,0.00,meteobridge,2017-06-28 08:05:00,
2017-06-28 04:10:00,49.8,48.2,30.02,NNE,13,0.0,0.0,94,0.00,,,0.00,meteobridge,2017-06-28 08:10:00,
2017-06-28 04:15:00,49.8,48.2,30.02,NNE,13,0.0,0.0,94,0.00,,,0.00,meteobridge,2017-06-28 08:15:00,
2017-06-28 04:20:00,49.8,48.2,30.02,NNE,13,0.0,0.0,94,0.00,,,0.00,meteobridge,2017-06-28 08:20:00,
2017-06-28 04:25:00,50.2,48.6,30.02,NNE,13,0.0,0.0,94,0.00,,,0.00,meteobridge,2017-06-28 08:25:00,
2017-06-28 04:30:00,50.2,48.6,30.02,NNE,13,0.0,0.0,94,0.00,,,0.00,meteobridge,2017-06-28 08:30:00,
2017-06-28 04:36:00,50.2,48.6,30.02,NNE,13,0.0,0.0,94,0.00,,,0.00,meteobridge,2017-06-28 08:36:00,
2017-06-28 04:41:00,50.2,48.6,30.02,NNE,13,0.0,0.0,94,0.00,,,0.00,meteobridge,2017-06-28 08:41:00,
2017-06-28 04:46:00,49.8,48.2,30.03,NNE,13,0.0,0.0,94,0.00,,,0.00,meteobridge,2017-06-28 08:46:00,
2017-06-28 04:51:00,49.8,48.2,30.03,NNE,13,0.0,0.0,94,0.00,,,0.00,meteobridge,2017-06-28 08:51:00,
2017-06-28 04:56:00,49.6,48.0,30.03,NNE,13,0.0,0.0,94,0.00,,,0.00,meteobridge,2017-06-28 08:56:00,
2017-06-28 05:01:00,49.5,47.8,30.03,NNE,16,0.0,2.0,94,0.00,,,0.00,meteobridge,2017-06-28 09:01:00,
2017-06-28 05:07:00,49.8,48.4,30.03,NNE,16,0.9,1.0,95,0.00,,,0.00,meteobridge,2017-06-28 09:07:00,
2017-06-28 05:12:00,50.2,48.7,30.04,NNE,26,0.9,2.0,95,0.00,,,0.00,meteobridge,2017-06-28 09:12:00,
2017-06-28 05:17:00,50.2,48.6,30.04,NNE,26,0.0,1.0,94,0.00,,,0.00,meteobridge,2017-06-28 09:17:00,
2017-06-28 05:22:00,49.8,48.2,30.04,NNE,26,0.0,1.0,94,0.00,,,0.00,meteobridge,2017-06-28 09:22:00,
2017-06-28 05:27:00,49.8,48.2,30.04,NNE,26,0.9,2.0,94,0.00,,,0.00,meteobridge,2017-06-28 09:27:00,
2017-06-28 05:32:00,50.2,48.7,30.04,NNE,26,0.0,0.0,95,0.00,,,0.00,meteobridge,2017-06-28 09:32:00,
2017-06-28 05:37:00,50.2,48.6,30.05,NNE,26,0.0,0.0,94,0.00,,,0.00,meteobridge,2017-06-28 09:37:00,
2017-06-28 05:42:00,49.8,48.2,30.05,NNE,26,0.0,0.0,94,0.00,,,0.00,meteobridge,2017-06-28 09:42:00,
2017-06-28 05:47:00,49.8,48.2,30.04,ENE,59,0.0,0.0,94,0.00,,,0.00,meteobridge,2017-06-28 09:47:00,
2017-06-28 05:52:00,49.8,48.2,30.05,ENE,59,0.0,0.0,94,0.00,,,0.00,meteobridge,2017-06-28 09:52:00,
2017-06-28 05:57:00,49.5,47.8,30.05,ENE,59,0.0,0.0,94,0.00,,,0.00,meteobridge,2017-06-28 09:57:00,
2017-06-28 06:02:00,49.5,47.8,30.05,ENE,59,0.0,0.0,94,0.00,,,0.00,meteobridge,2017-06-28 10:02:00,
2017-06-28 06:07:00,49.5,47.8,30.05,ENE,59,0.0,0.0,94,0.00,,,0.00,meteobridge,2017-06-28 10:07:00,
2017-06-28 06:12:00,49.3,47.7,30.05,ENE,59,0.0,0.0,94,0.00,,,0.00,meteobridge,2017-06-28 10:12:00,
2017-06-28 06:17:00,49.5,47.8,30.06,ENE,59,0.0,1.0,94,0.00,,,0.00,meteobridge,2017-06-28 10:17:00,
2017-06-28 06:22:00,49.5,48.0,30.06,NE,43,0.0,1.0,95,0.00,,,0.00,meteobridge,2017-06-28 10:22:00,
2017-06-28 06:27:00,49.8,48.4,30.06,NE,43,0.9,1.0,95,0.00,,,0.00,meteobridge,2017-06-28 10:27:00,
2017-06-28 06:33:00,50.2,48.7,30.06,NE,43,0.0,0.0,95,0.00,,,0.00,meteobridge,2017-06-28 10:33:00,
2017-06-28 06:38:00,50.5,49.5,30.06,NE,43,0.0,0.0,96,0.00,,,0.00,meteobridge,2017-06-28 10:38:00,
2017-06-28 06:43:00,50.7,49.6,30.06,NE,43,0.0,0.0,96,0.00,,,0.00,meteobridge,2017-06-28 10:43:00,
2017-06-28 06:48:00,51.1,50.0,30.06,NE,43,0.0,0.0,96,0.00,,,0.00,meteobridge,2017-06-28 10:48:00,
2017-06-28 06:54:00,51.1,50.0,30.06,NE,43,0.0,0.0,96,0.00,,,0.00,meteobridge,2017-06-28 10:54:00,
2017-06-28 06:59:00,51.3,50.2,30.06,NE,43,0.0,0.0,96,0.00,,,0.00,meteobridge,2017-06-28 10:59:00,
2017-06-28 07:04:00,51.4,50.4,30.06,NE,43,0.0,0.0,96,0.00,,,0.00,meteobridge,2017-06-28 11:04:00,
2017-06-28 07:09:00,51.6,50.5,30.06,NE,43,0.0,0.0,96,0.00,,,0.00,meteobridge,2017-06-28 11:09:00,
2017-06-28 07:15:00,51.6,50.5,30.07,NE,43,0.0,0.0,96,0.00,,,0.00,meteobridge,2017-06-28 11:15:00,
2017-06-28 07:20:00,52.0,50.9,30.07,NE,36,0.9,2.0,96,0.00,,,0.00,meteobridge,2017-06-28 11:20:00,
2017-06-28 07:25:00,52.0,50.9,30.07,NNE,21,0.9,2.0,96,0.00,,,0.00,meteobridge,2017-06-28 11:25:00,
2017-06-28 07:30:00,52.3,51.3,30.07,North,9,0.0,2.0,96,0.00,,,0.00,meteobridge,2017-06-28 11:30:00,
2017-06-28 07:35:00,52.5,51.4,30.07,North,9,0.0,2.0,96,0.00,,,0.00,meteobridge,2017-06-28 11:35:00,
2017-06-28 07:40:00,52.9,51.8,30.07,North,9,2.0,2.0,96,0.00,,,0.00,meteobridge,2017-06-28 11:40:00,
2017-06-28 07:45:00,53.2,52.2,30.07,North,9,0.0,0.0,96,0.00,,,0.00,meteobridge,2017-06-28 11:45:00,
2017-06-28 07:50:00,53.4,52.3,30.08,North,9,0.0,0.0,96,0.00,,,0.00,meteobridge,2017-06-28 11:50:00,
2017-06-28 07:55:00,53.8,52.7,30.07,North,9,0.0,0.0,96,0.00,,,0.00,meteobridge,2017-06-28 11:55:00,
2017-06-28 08:01:00,54.1,53.1,30.08,North,9,0.0,0.0,96,0.00,,,0.00,meteobridge,2017-06-28 12:01:00,
2017-06-28 08:06:00,54.5,53.4,30.08,North,9,0.0,2.0,96,0.00,,,0.00,meteobridge,2017-06-28 12:06:00,
2017-06-28 08:11:00,54.9,53.8,30.08,North,9,0.0,0.0,96,0.00,,,0.00,meteobridge,2017-06-28 12:11:00,
2017-06-28 08:17:00,55.2,54.1,30.08,North,0,0.0,0.0,96,0.00,,,0.00,meteobridge,2017-06-28 12:17:00,
2017-06-28 08:22:00,55.8,54.7,30.08,North,0,0.0,0.0,96,0.00,,,0.00,meteobridge,2017-06-28 12:22:00,
2017-06-28 08:27:00,56.1,55.0,30.08,North,355,0.9,2.0,96,0.00,,,0.00,meteobridge,2017-06-28 12:27:00,
2017-06-28 08:28:00,56.3,55.2,30.08,WNW,284,2.0,2.0,96,0.00,,,0.00,meteobridge,2017-06-28 12:28:00,
2017-06-28 08:33:00,57.0,55.2,30.08,West,265,0.9,2.0,94,0.00,,,0.00,meteobridge,2017-06-28 12:33:00,
2017-06-28 08:38:00,57.4,55.0,30.08,WSW,252,0.0,4.0,92,0.00,,,0.00,meteobridge,2017-06-28 12:38:00,
2017-06-28 08:43:00,57.7,54.9,30.08,WSW,252,0.9,1.0,90,0.00,,,0.00,meteobridge,2017-06-28 12:43:00,
2017-06-28 08:48:00,58.3,54.1,30.08,West,262,2.0,2.0,86,0.00,,,0.00,meteobridge,2017-06-28 12:48:00,
2017-06-28 08:53:00,58.8,54.0,30.09,West,270,0.0,3.0,84,0.00,,,0.00,meteobridge,2017-06-28 12:53:00,
2017-06-28 08:58:00,59.4,53.8,30.09,WSW,258,2.9,3.0,82,0.00,,,0.00,meteobridge,2017-06-28 12:58:00,
2017-06-28 09:03:00,59.9,53.4,30.09,West,270,0.0,2.0,79,0.00,,,0.00,meteobridge,2017-06-28 13:03:00,
2017-06-28 09:08:00,60.3,54.1,30.08,West,271,0.0,3.0,80,0.00,,,0.00,meteobridge,2017-06-28 13:08:00,
2017-06-28 09:13:00,60.4,53.6,30.08,West,275,2.0,2.0,78,0.00,,,0.00,meteobridge,2017-06-28 13:13:00,
2017-06-28 09:18:00,61.0,53.1,30.08,NNW,329,2.0,2.0,75,0.00,,,0.00,meteobridge,2017-06-28 13:18:00,
2017-06-28 09:24:00,61.5,52.3,30.08,WSW,255,2.0,4.0,72,0.00,,,0.00,meteobridge,2017-06-28 13:24:00,
2017-06-28 09:29:00,62.2,52.7,30.08,West,276,2.9,4.0,71,0.00,,,0.00,meteobridge,2017-06-28 13:29:00,
2017-06-28 09:34:00,63.0,53.1,30.08,West,269,2.0,3.0,70,0.00,,,0.00,meteobridge,2017-06-28 13:34:00,
2017-06-28 09:36:00,63.1,53.2,30.08,West,269,2.0,3.0,70,0.00,,,0.00,meteobridge,2017-06-28 13:36:00,
2017-06-28 09:41:00,63.5,51.4,30.08,West,270,2.9,5.0,65,0.00,,,0.00,meteobridge,2017-06-28 13:41:00,
2017-06-28 09:47:00,64.0,53.2,30.08,WNW,284,2.0,3.0,68,0.00,,,0.00,meteobridge,2017-06-28 13:47:00,
2017-06-28 09:52:00,64.2,52.2,30.08,WNW,292,2.9,5.0,65,0.00,,,0.00,meteobridge,2017-06-28 13:52:00,
2017-06-28 09:57:00,64.8,52.7,30.08,WNW,285,0.9,3.0,65,0.00,,,0.00,meteobridge,2017-06-28 13:57:00,
2017-06-28 10:02:00,64.9,50.7,30.08,West,267,2.0,7.0,60,0.00,,,0.00,meteobridge,2017-06-28 14:02:00,
2017-06-28 10:07:00,65.5,53.4,30.08,NNE,33,0.9,4.0,65,0.00,,,0.00,meteobridge,2017-06-28 14:07:00,
2017-06-28 10:12:00,65.8,53.2,30.08,WSW,256,4.0,7.0,64,0.00,,,0.00,meteobridge,2017-06-28 14:12:00,
2017-06-28 10:17:00,66.0,52.7,30.08,WNW,289,2.0,6.0,62,0.00,,,0.00,meteobridge,2017-06-28 14:17:00,
2017-06-28 10:21:00,66.4,53.4,30.08,WSW,247,2.9,3.0,63,0.00,,,0.00,meteobridge,2017-06-28 14:21:00,
2017-06-28 10:26:00,66.6,51.3,30.08,WSW,257,2.0,7.0,58,0.00,,,0.00,meteobridge,2017-06-28 14:26:00,
2017-06-28 10:31:00,66.7,53.2,30.08,WNW,291,0.9,4.0,62,0.00,,,0.00,meteobridge,2017-06-28 14:31:00,
2017-06-28 10:36:00,66.7,50.5,30.07,West,278,2.9,3.0,56,0.00,,,0.00,meteobridge,2017-06-28 14:36:00,
2017-06-28 10:41:00,66.9,49.8,30.07,WSW,258,8.1,9.0,54,0.00,,,0.00,meteobridge,2017-06-28 14:41:00,
2017-06-28 10:46:00,67.1,50.4,30.07,West,280,0.9,8.0,55,0.00,,,0.00,meteobridge,2017-06-28 14:46:00,
2017-06-28 10:51:00,67.3,50.5,30.07,North,0,2.0,5.0,55,0.00,,,0.00,meteobridge,2017-06-28 14:51:00,
2017-06-28 10:56:00,67.6,49.8,30.07,WSW,248,2.0,3.0,53,0.00,,,0.00,meteobridge,2017-06-28 14:56:00,
2017-06-28 11:01:00,67.8,52.0,30.07,West,267,2.0,6.0,57,0.00,,,0.00,meteobridge,2017-06-28 15:01:00,
2017-06-28 11:06:00,68.4,52.0,30.07,WSW,248,2.0,6.0,56,0.00,,,0.00,meteobridge,2017-06-28 15:06:00,
2017-06-28 11:11:00,68.5,52.7,30.07,WSW,255,4.0,5.0,57,0.00,,,0.00,meteobridge,2017-06-28 15:11:00,
2017-06-28 11:16:00,68.5,50.2,30.07,SW,217,0.0,2.0,52,0.00,,,0.00,meteobridge,2017-06-28 15:16:00,
2017-06-28 11:21:00,68.9,51.1,30.08,West,259,2.9,7.0,53,0.00,,,0.00,meteobridge,2017-06-28 15:21:00,
2017-06-28 11:26:00,68.9,48.4,30.08,West,273,2.0,3.0,48,0.00,,,0.00,meteobridge,2017-06-28 15:26:00,
2017-06-28 11:31:00,68.9,47.8,30.08,WSW,245,4.0,7.0,47,0.00,,,0.00,meteobridge,2017-06-28 15:31:00,
2017-06-28 11:37:00,69.3,50.4,30.08,WNW,300,4.0,7.0,51,0.00,,,0.00,meteobridge,2017-06-28 15:37:00,
2017-06-28 11:42:00,69.6,48.6,30.08,NW,324,2.0,6.0,47,0.00,,,0.00,meteobridge,2017-06-28 15:42:00,
2017-06-28 11:47:00,70.2,51.3,30.08,NE,50,2.9,4.0,51,0.00,,,0.00,meteobridge,2017-06-28 15:47:00,
2017-06-28 11:52:00,70.3,51.4,30.08,West,273,2.9,5.0,51,0.00,,,0.00,meteobridge,2017-06-28 15:52:00,
2017-06-28 11:57:00,70.5,48.7,30.08,WNW,283,0.9,6.0,46,0.00,,,0.00,meteobridge,2017-06-28 15:57:00,
2017-06-28 12:02:00,70.3,48.6,30.09,WSW,258,2.9,4.0,46,0.00,,,0.00,meteobridge,2017-06-28 16:02:00,
2017-06-28 12:07:00,70.0,48.7,30.09,West,265,0.9,3.0,47,0.00,,,0.00,meteobridge,2017-06-28 16:07:00,
2017-06-28 12:12:00,70.2,48.9,30.08,WNW,285,2.9,3.0,47,0.00,,,0.00,meteobridge,2017-06-28 16:12:00,
2017-06-28 12:17:00,70.3,49.6,30.08,West,277,2.0,7.0,48,0.00,,,0.00,meteobridge,2017-06-28 16:17:00,
2017-06-28 12:22:00,71.1,51.4,30.08,West,269,0.9,5.0,50,0.00,,,0.00,meteobridge,2017-06-28 16:22:00,
2017-06-28 12:27:00,71.4,50.2,30.08,WNW,288,2.0,4.0,47,0.00,,,0.00,meteobridge,2017-06-28 16:27:00,
2017-06-28 12:32:00,71.2,48.2,30.09,West,272,4.0,6.0,44,0.00,,,0.00,meteobridge,2017-06-28 16:32:00,
2017-06-28 12:37:00,71.4,46.6,30.08,West,277,8.9,10.0,41,0.00,,,0.00,meteobridge,2017-06-28 16:37:00,
2017-06-28 12:42:00,71.4,48.4,30.08,West,271,2.9,4.0,44,0.00,,,0.00,meteobridge,2017-06-28 16:42:00,
2017-06-28 12:47:00,71.8,48.7,30.08,West,266,2.0,7.0,44,0.00,,,0.00,meteobridge,2017-06-28 16:47:00,
2017-06-28 12:52:00,72.1,49.1,30.08,West,265,4.0,6.0,44,0.00,,,0.00,meteobridge,2017-06-28 16:52:00,
2017-06-28 12:57:00,72.5,46.2,30.08,West,267,4.9,8.0,39,0.00,,,0.00,meteobridge,2017-06-28 16:57:00,
2017-06-28 13:03:00,72.7,50.2,30.08,WNW,300,2.9,3.0,45,0.00,,,0.00,meteobridge,2017-06-28 17:03:00,
2017-06-28 13:08:00,72.5,50.5,30.09,West,280,2.0,6.0,46,0.00,,,0.00,meteobridge,2017-06-28 17:08:00,
2017-06-28 13:13:00,72.3,49.1,30.09,West,276,2.9,6.0,44,0.00,,,0.00,meteobridge,2017-06-28 17:13:00,
2017-06-28 13:18:00,72.3,49.8,30.08,West,269,2.9,3.0,45,0.00,,,0.00,meteobridge,2017-06-28 17:18:00,
2017-06-28 13:23:00,72.5,51.6,30.09,WNW,287,4.0,5.0,48,0.00,,,0.00,meteobridge,2017-06-28 17:23:00,
2017-06-28 13:28:00,72.9,50.4,30.09,West,273,2.9,6.0,45,0.00,,,0.00,meteobridge,2017-06-28 17:28:00,
2017-06-28 13:33:00,73.0,49.3,30.09,WNW,294,4.9,9.0,43,0.00,,,0.00,meteobridge,2017-06-28 17:33:00,
2017-06-28 13:38:00,72.7,51.3,30.09,WNW,288,2.0,3.0,47,0.00,,,0.00,meteobridge,2017-06-28 17:38:00,
2017-06-28 13:43:00,72.7,52.3,30.09,WNW,288,0.9,4.0,49,0.00,,,0.00,meteobridge,2017-06-28 17:43:00,
2017-06-28 13:48:00,73.2,50.5,30.09,WNW,282,6.9,9.0,45,0.00,,,0.00,meteobridge,2017-06-28 17:48:00,
2017-06-28 13:53:00,73.0,50.4,30.09,WSW,247,2.0,3.0,45,0.00,,,0.00,meteobridge,2017-06-28 17:53:00,
2017-06-28 13:58:00,73.2,50.5,30.09,WSW,243,2.0,6.0,45,0.00,,,0.00,meteobridge,2017-06-28 17:58:00,
2017-06-28 14:03:00,73.0,52.2,30.09,West,265,4.0,4.0,48,0.00,,,0.00,meteobridge,2017-06-28 18:03:00,
2017-06-28 14:08:00,72.7,51.8,30.09,West,266,2.9,5.0,48,0.00,,,0.00,meteobridge,2017-06-28 18:08:00,
2017-06-28 14:13:00,72.5,51.1,30.09,West,269,2.9,6.0,47,0.00,,,0.00,meteobridge,2017-06-28 18:13:00,
2017-06-28 14:18:00,72.0,51.3,30.09,West,271,2.0,3.0,48,0.00,,,0.00,meteobridge,2017-06-28 18:18:00,
2017-06-28 14:23:00,72.3,55.2,30.09,WNW,286,2.0,5.0,55,0.00,,,0.00,meteobridge,2017-06-28 18:23:00,
2017-06-28 14:28:00,72.7,51.3,30.09,SW,236,4.9,6.0,47,0.00,,,0.00,meteobridge,2017-06-28 18:28:00,
2017-06-28 14:33:00,72.9,54.1,30.09,WNW,295,2.9,5.0,52,0.00,,,0.00,meteobridge,2017-06-28 18:33:00,
2017-06-28 14:38:00,73.0,52.2,30.08,West,274,2.9,11.0,48,0.00,,,0.00,meteobridge,2017-06-28 18:38:00,
2017-06-28 14:43:00,73.2,50.0,30.08,North,355,2.0,6.0,44,0.00,,,0.00,meteobridge,2017-06-28 18:43:00,
2017-06-28 14:48:00,73.8,52.3,30.07,North,11,2.9,9.0,47,0.00,,,0.00,meteobridge,2017-06-28 18:48:00,
2017-06-28 14:53:00,73.9,52.5,30.07,West,279,0.9,5.0,47,0.00,,,0.00,meteobridge,2017-06-28 18:53:00,
2017-06-28 14:59:00,73.9,50.7,30.06,WSW,238,4.9,5.0,44,0.00,,,0.00,meteobridge,2017-06-28 18:59:00,
2017-06-28 15:04:00,74.1,53.8,30.07,West,276,4.9,7.0,49,0.00,,,0.00,meteobridge,2017-06-28 19:04:00,
2017-06-28 15:09:00,74.7,52.0,30.06,WNW,293,4.9,6.0,45,0.00,,,0.00,meteobridge,2017-06-28 19:09:00,
2017-06-28 15:14:00,74.7,49.5,30.06,NW,304,6.0,9.0,41,0.00,,,0.00,meteobridge,2017-06-28 19:14:00,
2017-06-28 15:19:00,74.8,51.4,30.06,NW,312,2.9,4.0,44,0.00,,,0.00,meteobridge,2017-06-28 19:19:00,
2017-06-28 15:24:00,75.4,53.2,30.06,WNW,294,2.0,4.0,46,0.00,,,0.00,meteobridge,2017-06-28 19:24:00,
2017-06-28 15:29:00,75.9,51.3,30.06,WSW,242,2.9,6.0,42,0.00,,,0.00,meteobridge,2017-06-28 19:29:00,
2017-06-28 15:34:00,76.3,51.4,30.06,WSW,254,2.9,10.0,42,0.00,,,0.00,meteobridge,2017-06-28 19:34:00,
2017-06-28 15:39:00,76.3,51.4,30.06,WSW,257,2.9,5.0,42,0.00,,,0.00,meteobridge,2017-06-28 19:39:00,
2017-06-28 15:44:00,76.6,51.3,30.05,West,272,2.0,3.0,41,0.00,,,0.00,meteobridge,2017-06-28 19:44:00,
2017-06-28 15:49:00,76.6,51.8,30.05,West,263,4.0,5.0,42,0.00,,,0.00,meteobridge,2017-06-28 19:49:00,
2017-06-28 15:54:00,76.8,54.5,30.05,WNW,301,0.9,4.0,46,0.00,,,0.00,meteobridge,2017-06-28 19:54:00,
2017-06-28 15:59:00,77.2,49.6,30.05,North,0,2.0,2.0,38,0.00,,,0.00,meteobridge,2017-06-28 19:59:00,
2017-06-28 16:04:00,77.2,51.1,30.05,North,0,4.0,5.0,40,0.00,,,0.00,meteobridge,2017-06-28 20:04:00,
2017-06-28 16:09:00,76.8,52.7,30.05,SE,127,2.0,4.0,43,0.00,,,0.00,meteobridge,2017-06-28 20:09:00,
2017-06-28 16:14:00,76.6,50.5,30.05,North,351,2.0,2.0,40,0.00,,,0.00,meteobridge,2017-06-28 20:14:00,
2017-06-28 16:20:00,76.6,53.1,30.05,West,277,2.0,2.0,44,0.00,,,0.00,meteobridge,2017-06-28 20:20:00,
2017-06-28 16:25:00,76.8,51.3,30.05,WSW,253,0.9,3.0,41,0.00,,,0.00,meteobridge,2017-06-28 20:25:00,
2017-06-28 16:30:00,77.0,49.5,30.05,WNW,296,0.9,7.0,38,0.00,,,0.00,meteobridge,2017-06-28 20:30:00,
2017-06-28 16:35:00,77.4,49.8,30.05,WNW,285,0.0,2.0,38,0.00,,,0.00,meteobridge,2017-06-28 20:35:00,
2017-06-28 16:40:00,77.4,51.1,30.05,WNW,286,0.9,2.0,40,0.00,,,0.00,meteobridge,2017-06-28 20:40:00,
2017-06-28 16:45:00,76.8,51.3,30.05,WSW,252,0.9,3.0,41,0.00,,,0.00,meteobridge,2017-06-28 20:45:00,
2017-06-28 16:50:00,75.9,52.5,30.05,WSW,257,2.0,3.0,44,0.00,,,0.00,meteobridge,2017-06-28 20:50:00,
2017-06-28 16:55:00,75.6,50.2,30.05,West,274,2.0,4.0,41,0.00,,,0.00,meteobridge,2017-06-28 20:55:00,
2017-06-28 17:00:00,75.4,48.0,30.04,West,267,0.9,2.0,38,0.00,,,0.00,meteobridge,2017-06-28 21:00:00,
2017-06-28 17:05:00,75.7,49.1,30.05,West,270,2.0,4.0,39,0.00,,,0.00,meteobridge,2017-06-28 21:05:00,
2017-06-28 17:10:00,76.6,49.1,30.05,WNW,291,2.0,4.0,38,0.00,,,0.00,meteobridge,2017-06-28 21:10:00,
2017-06-28 17:15:00,77.2,51.6,30.05,West,269,2.9,4.0,41,0.00,,,0.00,meteobridge,2017-06-28 21:15:00,
2017-06-28 17:20:00,76.8,47.1,30.05,West,281,2.0,11.0,35,0.00,,,0.00,meteobridge,2017-06-28 21:20:00,
2017-06-28 17:26:00,75.9,47.1,30.05,West,281,4.0,9.0,36,0.00,,,0.00,meteobridge,2017-06-28 21:26:00,
2017-06-28 17:32:00,75.6,50.9,30.05,WNW,291,0.9,4.0,42,0.00,,,0.00,meteobridge,2017-06-28 21:32:00,
2017-06-28 17:37:00,75.7,47.7,30.04,West,272,2.0,4.0,37,0.00,,,0.00,meteobridge,2017-06-28 21:37:00,
2017-06-28 17:42:00,76.1,51.3,30.04,West,267,4.0,6.0,42,0.00,,,0.00,meteobridge,2017-06-28 21:42:00,
2017-06-28 17:47:00,76.1,48.0,30.05,WSW,257,2.9,5.0,37,0.00,,,0.00,meteobridge,2017-06-28 21:47:00,
2017-06-28 17:52:00,76.1,51.3,30.05,West,271,4.0,5.0,42,0.00,,,0.00,meteobridge,2017-06-28 21:52:00,
2017-06-28 17:57:00,75.9,49.1,30.05,WNW,284,0.9,2.0,39,0.00,,,0.00,meteobridge,2017-06-28 21:57:00,
2017-06-28 18:02:00,75.6,50.2,30.05,West,272,0.9,3.0,41,0.00,,,0.00,meteobridge,2017-06-28 22:02:00,
2017-06-28 18:07:00,75.6,50.2,30.05,WNW,292,0.0,2.0,41,0.00,,,0.00,meteobridge,2017-06-28 22:07:00,
2017-06-28 18:12:00,75.7,50.4,30.05,WNW,289,0.0,2.0,41,0.00,,,0.00,meteobridge,2017-06-28 22:12:00,
2017-06-28 18:17:00,75.4,48.7,30.05,WSW,257,2.9,6.0,39,0.00,,,0.00,meteobridge,2017-06-28 22:17:00,
2017-06-28 18:22:00,75.4,51.3,30.05,West,271,0.9,3.0,43,0.00,,,0.00,meteobridge,2017-06-28 22:22:00,
2017-06-28 18:27:00,75.6,48.9,30.05,WSW,251,2.9,3.0,39,0.00,,,0.00,meteobridge,2017-06-28 22:27:00,
2017-06-28 18:32:00,75.7,49.1,30.05,WSW,254,0.9,2.0,39,0.00,,,0.00,meteobridge,2017-06-28 22:32:00,
2017-06-28 18:37:00,76.1,47.1,30.05,West,271,2.0,4.0,36,0.00,,,0.00,meteobridge,2017-06-28 22:37:00,
2017-06-28 18:42:00,76.3,48.7,30.06,West,269,0.0,2.0,38,0.00,,,0.00,meteobridge,2017-06-28 22:42:00,
2017-06-28 18:48:00,76.5,50.4,30.06,West,269,0.9,2.0,40,0.00,,,0.00,meteobridge,2017-06-28 22:48:00,
2017-06-28 18:53:00,76.1,50.0,30.06,West,269,0.9,2.0,40,0.00,,,0.00,meteobridge,2017-06-28 22:53:00,
2017-06-28 18:58:00,75.9,49.1,30.06,West,267,2.9,5.0,39,0.00,,,0.00,meteobridge,2017-06-28 22:58:00,
2017-06-28 19:03:00,75.6,48.9,30.06,WNW,297,0.9,6.0,39,0.00,,,0.00,meteobridge,2017-06-28 23:03:00,
2017-06-28 19:08:00,75.4,50.0,30.06,WNW,296,0.0,2.0,41,0.00,,,0.00,meteobridge,2017-06-28 23:08:00,
2017-06-28 19:13:00,74.8,48.9,30.06,West,281,0.9,1.0,40,0.00,,,0.00,meteobridge,2017-06-28 23:13:00,
2017-06-28 19:18:00,74.8,49.6,30.06,West,281,0.0,2.0,41,0.00,,,0.00,meteobridge,2017-06-28 23:18:00,
2017-06-28 19:23:00,74.7,51.3,30.06,West,281,0.0,0.0,44,0.00,,,0.00,meteobridge,2017-06-28 23:23:00,
2017-06-28 19:28:00,74.7,52.5,30.06,West,281,0.0,0.0,46,0.00,,,0.00,meteobridge,2017-06-28 23:28:00,
2017-06-28 19:33:00,74.7,51.3,30.06,West,281,0.0,0.0,44,0.00,,,0.00,meteobridge,2017-06-28 23:33:00,
2017-06-28 19:38:00,74.7,52.0,30.06,West,281,0.0,0.0,45,0.00,,,0.00,meteobridge,2017-06-28 23:38:00,
2017-06-28 19:43:00,74.5,51.1,30.06,West,281,0.0,0.0,44,0.00,,,0.00,meteobridge,2017-06-28 23:43:00,
2017-06-28 19:48:00,74.1,52.0,30.06,West,281,0.0,0.0,46,0.00,,,0.00,meteobridge,2017-06-28 23:48:00,
2017-06-28 19:53:00,73.9,53.1,30.06,West,281,0.9,2.0,48,0.00,,,0.00,meteobridge,2017-06-28 23:53:00,
2017-06-28 19:58:00,73.8,53.4,30.05,West,281,0.9,2.0,49,0.00,,,0.00,meteobridge,2017-06-28 23:58:00,
2017-06-28 20:04:00,73.2,52.9,30.06,West,281,2.0,2.0,49,0.00,,,0.00,meteobridge,2017-06-29 00:04:00,
2017-06-28 20:09:00,73.0,52.7,30.06,West,281,0.9,1.0,49,0.00,,,0.00,meteobridge,2017-06-29 00:09:00,
2017-06-28 20:14:00,72.5,52.9,30.06,West,281,0.9,1.0,50,0.00,,,0.00,meteobridge,2017-06-29 00:14:00,
2017-06-28 20:19:00,72.0,53.4,30.06,West,281,0.0,0.0,52,0.00,,,0.00,meteobridge,2017-06-29 00:19:00,
2017-06-28 20:24:00,71.4,52.9,30.06,West,281,0.0,0.0,52,0.00,,,0.00,meteobridge,2017-06-29 00:24:00,
2017-06-28 20:29:00,70.9,52.9,30.06,West,281,0.0,0.0,53,0.00,,,0.00,meteobridge,2017-06-29 00:29:00,
2017-06-28 20:34:00,70.3,52.9,30.06,West,281,0.0,0.0,54,0.00,,,0.00,meteobridge,2017-06-29 00:34:00,
2017-06-28 20:40:00,70.0,53.1,30.06,West,281,0.0,0.0,55,0.00,,,0.00,meteobridge,2017-06-29 00:40:00,
2017-06-28 20:45:00,69.6,52.7,30.06,West,281,0.0,0.0,55,0.00,,,0.00,meteobridge,2017-06-29 00:45:00,
2017-06-28 20:50:00,69.1,52.2,30.06,West,281,0.0,0.0,55,0.00,,,0.00,meteobridge,2017-06-29 00:50:00,
2017-06-28 20:55:00,68.5,52.2,30.06,West,281,0.0,0.0,56,0.00,,,0.00,meteobridge,2017-06-29 00:55:00,
2017-06-28 21:00:00,68.4,52.0,30.06,West,281,0.0,0.0,56,0.00,,,0.00,meteobridge,2017-06-29 01:00:00,
2017-06-28 21:06:00,67.8,52.0,30.07,West,281,0.0,0.0,57,0.00,,,0.00,meteobridge,2017-06-29 01:06:00,
2017-06-28 21:11:00,67.6,52.3,30.07,West,281,0.0,0.0,58,0.00,,,0.00,meteobridge,2017-06-29 01:11:00,
2017-06-28 21:16:00,67.5,52.2,30.07,West,281,0.0,0.0,58,0.00,,,0.00,meteobridge,2017-06-29 01:16:00,
2017-06-28 21:21:00,67.1,52.3,30.07,West,279,0.0,0.0,59,0.00,,,0.00,meteobridge,2017-06-29 01:21:00,
2017-06-28 21:26:00,66.9,52.2,30.07,West,277,0.0,0.0,59,0.00,,,0.00,meteobridge,2017-06-29 01:26:00,
2017-06-28 21:31:00,66.7,52.0,30.08,West,277,0.0,0.0,59,0.00,,,0.00,meteobridge,2017-06-29 01:31:00,
2017-06-28 21:36:00,66.4,51.6,30.08,West,277,0.0,0.0,59,0.00,,,0.00,meteobridge,2017-06-29 01:36:00,
2017-06-28 21:41:00,66.4,51.6,30.08,WSW,256,0.9,1.0,59,0.00,,,0.00,meteobridge,2017-06-29 01:41:00,
2017-06-28 21:42:00,66.4,51.6,30.08,SW,223,0.0,2.0,59,0.00,,,0.00,meteobridge,2017-06-29 01:42:00,
2017-06-28 21:48:00,66.0,51.8,30.08,South,173,0.9,2.0,60,0.00,,,0.00,meteobridge,2017-06-29 01:48:00,
2017-06-28 21:53:00,66.0,52.2,30.08,SSE,151,0.9,3.0,61,0.00,,,0.00,meteobridge,2017-06-29 01:53:00,
2017-06-28 21:58:00,65.7,52.3,30.08,SSE,147,2.0,2.0,62,0.00,,,0.00,meteobridge,2017-06-29 01:58:00,
2017-06-28 22:03:00,65.5,52.5,30.09,SSE,147,0.0,0.0,63,0.00,,,0.00,meteobridge,2017-06-29 02:03:00,
2017-06-28 22:08:00,65.3,53.2,30.09,SSE,147,0.0,0.0,65,0.00,,,0.00,meteobridge,2017-06-29 02:08:00,
2017-06-28 22:13:00,65.1,53.1,30.09,SSE,147,0.0,0.0,65,0.00,,,0.00,meteobridge,2017-06-29 02:13:00,
2017-06-28 22:19:00,64.8,53.1,30.09,SSE,147,0.0,0.0,66,0.00,,,0.00,meteobridge,2017-06-29 02:19:00,
2017-06-28 22:24:00,64.8,53.6,30.09,SSE,147,0.0,0.0,67,0.00,,,0.00,meteobridge,2017-06-29 02:24:00,
2017-06-28 22:30:00,64.6,53.8,30.09,SSE,147,0.0,0.0,68,0.00,,,0.00,meteobridge,2017-06-29 02:30:00,
2017-06-28 22:35:00,64.2,53.8,30.09,SSE,147,0.0,0.0,69,0.00,,,0.00,meteobridge,2017-06-29 02:35:00,
2017-06-28 22:40:00,64.2,53.8,30.09,SSE,147,0.0,0.0,69,0.00,,,0.00,meteobridge,2017-06-29 02:40:00,
2017-06-28 22:46:00,64.0,54.1,30.09,SSE,147,0.0,0.0,70,0.00,,,0.00,meteobridge,2017-06-29 02:46:00,
2017-06-28 22:51:00,63.9,54.3,30.09,SSE,147,0.0,0.0,71,0.00,,,0.00,meteobridge,2017-06-29 02:51:00,
2017-06-28 22:56:00,63.7,54.1,30.09,SSE,147,0.0,0.0,71,0.00,,,0.00,meteobridge,2017-06-29 02:56:00,
2017-06-28 23:01:00,63.5,54.3,30.09,SSE,147,0.0,0.0,72,0.00,,,0.00,meteobridge,2017-06-29 03:01:00,
2017-06-28 23:06:00,63.3,54.1,30.10,SSE,147,0.0,0.0,72,0.00,,,0.00,meteobridge,2017-06-29 03:06:00,